Wind_Speed
40 40 42 44 43 41 40 41 41 41 42 44 46 47 47 46 47 50 48 44 43 38 36 39 33 31 37 41 44 48 49 47 46 46 49 49 48 47 45 43 42 40 39 39 40 42 43 45 47 49 51 52 52 51 50 49 49 49 50 52 53 54 55 55 57 58 58 58 59 60 61 62 63 64 64 65 67 69 71 72 74 77 80 82 84 86
39 39 42 45 43 42 41 41 41 41 42 43 45 46 46 47 47 49 50 47 46 40 37 40 35 32 37 40 42 46 49 50 48 48 51 53 52 51 49 48 46 43 41 42 42 43 44 46 48 50 51 51 51 50 49 49 50 50 52 53 54 55 56 57 58 58 59 60 61 62 63 64 65 65 66 68 70 71 73 76 79 82 84 86 89 91
37 39 42 44 44 43 42 41 41 40 41 43 44 44 45 49 48 47 50 49 47 42 39 41 36 32 38 39 41 45 46 49 49 48 53 54 53 53 52 51 49 46 44 44 44 45 45 47 49 50 50 50 50 49 50 50 51 52 53 54 55 56 58 59 60 60 61 62 62 63 64 65 66 67 68 70 71 74 76 79 82 85 88 90 93 96
38 40 42 43 43 43 42 41 41 40 40 42 43 44 45 49 48 46 49 50 47 44 41 41 36 33 37 38 39 43 44 46 48 48 52 53 54 56 56 54 51 48 47 47 47 46 47 48 50 50 50 50 49 49 50 50 51 53 53 54 56 58 59 60 62 63 63 63 63 64 65 66 66 68 69 72 74 76 79 82 86 89 91 94 96 99
41 43 43 43 43 43 42 42 42 41 39 40 42 44 45 46 47 45 47 47 46 44 42 41 36 32 36 35 34 40 41 42 46 49 52 52 53 57 58 57 53 50 50 49 49 49 49 50 50 50 49 49 49 49 50 50 52 53 54 55 57 59 61 62 63 63 63 65 66 67 68 68 69 70 72 74 77 79 82 86 89 92 94 96 98 100
45 47 45 46 45 44 44 43 44 42 38 38 40 44 44 42 44 44 44 44 43 42 41 41 38 30 30 30 30 37 40 40 45 50 51 51 52 55 58 59 56 54 54 53 52 52 52 52 51 50 49 49 49 50 50 52 53 54 55 56 58 60 61 62 63 64 65 67 69 71 71 72 73 74 75 77 79 82 86 90 93 95 96 98 100 101
48 51 49 48 48 47 46 45 47 45 39 37 41 44 43 41 42 42 42 42 40 41 38 40 42 30 23 26 29 36 39 41 48 50 49 49 49 53 58 59 57 57 57 56 56 55 55 54 52 52 51 50 50 51 53 55 55 56 57 58 60 61 62 64 66 68 69 71 73 75 76 77 78 78 80 81 84 87 90 94 96 97 99 100 102 103
51 52 51 51 50 49 49 48 49 47 42 38 41 44 43 43 43 41 42 41 39 40 35 38 47 34 19 23 29 34 39 44 48 49 49 48 47 52 57 59 60 60 60 60 59 58 56 55 55 54 54 53 53 54 56 58 59 59 61 61 62 64 65 67 69 71 73 74 76 78 80 81 82 83 84 87 89 92 95 98 100 101 101 103 104 105
52 53 53 53 52 51 51 51 51 50 46 42 43 45 45 45 45 43 43 42 41 40 32 37 49 38 21 23 29 33 40 45 46 48 49 47 48 54 57 60 62 62 63 62 60 58 56 56 56 57 57 57 56 57 60 62 62 63 64 65 66 67 68 70 71 73 75 77 79 81 83 84 85 86 88 91 94 96 99 101 102 103 103 105 106 106
53 53 54 53 54 54 54 54 53 53 51 48 47 48 48 49 48 47 46 46 45 40 34 40 48 40 26 23 30 38 44 45 45 48 49 48 52 57 58 62 64 64 64 62 59 58 57 56 57 58 60 61 60 60 62 63 65 66 67 68 69 70 71 73 74 76 77 79 81 83 84 85 87 89 92 95 97 99 100 102 102 103 104 105 107 107
54 52 53 55 57 57 57 56 55 55 53 52 51 51 53 53 52 53 51 52 51 43 40 46 49 45 35 28 35 44 46 46 47 50 52 52 56 59 61 64 65 64 63 61 59 58 57 57 58 60 63 65 64 63 64 65 66 67 67 69 70 71 73 75 76 78 79 81 83 84 86 87 90 93 96 98 99 100 101 101 102 103 104 105 106 106
55 53 55 57 58 58 59 57 56 55 54 54 54 54 56 55 56 56 55 57 57 49 47 51 51 48 41 35 40 44 45 46 46 49 53 54 57 60 63 65 65 64 63 61 60 59 58 59 60 63 66 66 66 66 66 67 67 68 68 68 69 71 74 76 78 80 82 84 85 87 89 91 94 97 99 100 100 101 101 101 102 103 104 105 105 105
58 57 58 59 60 61 61 59 57 56 55 55 55 57 58 57 57 57 55 58 56 50 50 52 51 47 40 38 42 43 43 44 43 47 52 55 59 61 62 65 66 65 64 62 61 61 60 60 61 63 66 67 67 68 68 68 69 70 70 70 71 73 75 77 80 82 84 86 88 90 91 93 96 99 100 101 101 102 102 101 103 104 104 105 105 105
62 60 61 63 64 63 63 63 61 58 58 57 57 60 60 59 61 59 56 57 53 48 48 49 46 41 38 39 42 42 43 44 44 47 53 58 61 63 64 67 67 66 65 63 62 62 62 61 63 65 67 69 71 70 70 70 71 71 72 73 74 75 78 81 83 85 87 88 90 91 93 95 98 100 101 101 102 102 102 102 104 105 105 105 105 104
67 63 62 67 68 66 65 66 65 62 61 60 61 64 62 62 67 65 59 57 55 51 47 47 44 39 38 40 41 42 42 45 49 51 55 61 65 66 67 68 68 67 66 64 63 64 64 66 67 68 69 70 72 72 71 72 72 73 74 76 77 79 82 84 86 87 89 90 92 93 95 97 100 101 101 102 103 103 104 104 105 106 106 106 104 102
73 67 64 69 71 68 68 68 67 67 64 62 63 65 64 66 71 70 65 61 62 57 46 45 46 40 39 41 39 42 44 49 54 54 58 65 66 68 68 67 69 69 66 65 66 67 68 70 70 70 70 70 71 72 72 73 73 74 76 77 78 81 83 85 86 88 89 91 93 95 97 100 101 102 102 104 105 105 105 106 106 107 106 105 102 99
77 73 68 71 72 70 71 70 69 69 67 65 64 65 66 69 70 72 70 66 68 65 50 46 47 41 40 41 39 43 48 51 55 56 60 66 67 67 67 67 70 71 68 67 67 68 69 70 71 71 70 70 71 73 73 74 73 74 76 77 79 82 83 85 87 88 90 92 95 98 100 101 102 103 104 106 107 107 107 106 106 105 105 102 99 96
79 78 73 73 74 73 73 73 70 69 69 68 66 66 68 70 70 71 73 70 71 71 59 50 50 44 41 42 43 47 50 53 58 60 64 69 71 70 69 71 73 72 71 69 69 69 70 73 75 74 73 73 74 76 76 77 77 78 79 81 83 85 86 88 89 91 93 95 98 100 101 102 103 104 106 106 107 108 107 105 104 103 101 98 95 93
83 84 77 74 76 76 75 74 70 67 69 71 69 69 70 71 72 73 75 75 75 77 68 55 51 47 42 44 47 50 52 57 64 67 69 74 76 74 73 74 75 74 75 73 71 73 74 77 79 78 78 79 80 81 81 82 82 83 84 86 87 88 89 90 92 94 96 98 100 101 102 103 104 105 106 106 107 107 104 102 100 99 97 94 91 90
88 91 85 79 79 80 77 72 70 70 72 74 72 72 72 73 75 76 77 78 77 79 74 62 54 45 41 46 50 51 54 61 70 72 73 78 79 76 76 77 76 76 77 76 73 75 78 82 84 83 82 83 84 85 86 87 87 87 89 90 91 91 92 93 95 96 98 99 100 101 101 102 104 105 106 106 106 103 100 98 97 95 92 90 88 87
92 95 92 87 85 83 77 74 76 76 76 78 77 76 75 75 78 80 80 79 79 80 76 70 61 44 39 48 51 52 57 63 70 71 72 78 77 76 78 80 77 75 76 78 78 81 85 87 88 86 85 86 86 88 90 90 91 92 93 94 94 94 95 96 97 98 99 99 99 99 101 103 105 106 105 104 102 99 96 94 92 90 88 87 86 86
95 97 97 95 91 85 80 79 80 79 79 81 81 79 77 78 83 86 85 81 80 82 77 77 72 50 40 49 52 55 62 67 70 72 74 79 79 78 81 82 80 76 76 80 83 87 89 88 87 87 87 89 90 92 94 95 95 96 97 97 96 96 97 98 99 98 97 97 98 100 102 104 105 104 102 100 97 94 92 90 89 87 86 85 85 86
97 100 101 100 96 91 87 85 83 81 81 82 82 81 81 86 89 90 91 87 86 86 80 82 83 60 45 53 57 61 68 71 73 75 76 80 82 83 86 86 83 81 82 85 89 91 90 89 89 90 91 93 95 95 96 97 98 98 98 97 96 96 98 98 97 95 96 98 100 101 102 101 100 99 97 96 93 91 90 89 87 86 86 86 86 86
99 104 105 104 101 97 92 89 87 85 84 84 84 85 87 90 91 92 95 94 92 90 83 88 91 71 55 61 66 68 72 71 73 76 77 79 82 85 87 87 85 85 87 90 93 94 93 91 92 93 95 96 95 94 95 95 96 97 96 96 96 96 95 94 94 94 96 99 100 100 98 97 96 95 94 92 91 90 89 88 88 87 87 87 87 88
102 105 108 108 105 100 94 91 89 89 90 91 90 90 90 91 92 94 95 97 97 91 86 94 97 80 69 73 75 74 74 73 75 78 78 79 82 84 86 87 87 88 90 93 95 95 93 92 93 94 96 97 95 94 94 94 95 96 96 95 94 93 92 92 94 95 96 97 98 97 96 94 93 92 92 91 90 88 88 88 88 88 88 88 88 89
106 107 108 109 106 101 95 92 92 94 97 98 96 94 94 94 96 97 98 99 97 90 90 98 97 86 82 82 79 78 79 80 82 83 82 81 83 84 86 87 88 91 94 95 95 93 92 93 94 95 97 100 99 97 96 96 96 96 95 94 92 91 91 94 95 95 96 96 96 96 94 93 92 91 90 90 89 88 88 88 89 89 89 89 88 89
111 111 111 110 108 103 99 95 94 97 99 100 99 98 97 96 97 99 101 99 95 95 98 97 93 92 92 86 79 81 88 91 90 89 88 87 87 88 88 88 88 92 96 97 95 94 93 95 96 97 100 101 100 98 98 97 96 95 94 93 93 93 94 96 96 96 96 97 97 96 94 93 91 90 90 90 89 89 89 89 89 89 89 88 88 89
114 114 112 111 109 106 102 99 96 97 100 103 103 102 100 99 99 100 99 94 95 101 102 95 93 98 98 88 82 88 97 99 97 96 95 95 96 95 95 94 93 95 97 97 96 95 96 97 98 98 100 100 99 98 99 99 97 96 96 96 96 96 96 97 97 97 97 98 98 97 95 94 92 91 91 90 89 89 89 89 89 89 88 88 88 89
117 117 114 113 111 108 106 104 100 99 103 106 107 105 103 101 98 97 94 92 96 103 101 96 99 103 98 91 91 96 100 101 102 102 101 102 103 103 103 103 101 101 100 98 97 98 98 99 99 99 100 99 98 99 101 100 100 100 100 99 99 98 99 99 99 99 100 100 100 98 96 94 93 92 92 91 90 89 89 89 89 88 87 87 89 90
119 120 118 116 116 114 111 108 105 104 107 109 109 109 107 102 99 97 94 92 97 101 100 101 106 105 100 97 98 100 101 103 106 106 106 107 108 109 110 109 107 106 105 102 101 101 101 100 100 99 98 97 98 101 102 102 102 101 102 102 101 101 102 103 102 102 102 102 101 99 97 95 93 93 92 91 90 89 88 88 87 86 87 88 90 91
120 120 119 119 120 120 116 112 110 110 111 112 113 111 107 102 103 103 98 94 99 104 104 107 111 108 102 102 105 105 106 109 110 110 110 110 109 112 115 114 112 111 109 106 104 103 103 102 101 100 100 100 102 104 104 104 103 103 104 104 103 104 105 106 106 104 104 104 103 101 98 96 95 93 92 90 88 87 87 86 86 86 88 89 90 91
124 122 121 121 124 123 118 115 115 116 117 119 117 110 105 106 109 109 103 100 106 110 108 109 110 107 104 107 111 112 113 115 115 115 115 112 111 115 118 117 114 112 112 112 109 106 105 104 103 105 105 106 107 107 107 107 105 105 106 106 106 107 109 109 107 106 106 105 104 102 99 97 95 93 91 89 87 86 86 85 86 87 89 90 91 92
128 126 124 125 127 125 122 120 120 121 125 125 117 109 109 113 114 111 108 109 114 116 113 110 108 106 109 114 118 118 119 120 120 120 118 115 116 121 121 118 116 115 116 117 114 110 108 107 107 109 109 109 110 111 110 109 107 107 108 108 109 110 110 110 108 108 107 106 104 102 100 97 95 91 89 87 86 85 85 86 87 88 89 90 91 92
132 131 129 129 130 129 126 124 125 129 130 124 115 112 115 116 115 114 115 117 121 123 122 117 113 114 118 122 123 123 123 124 125 124 121 120 123 126 124 121 119 119 118 117 116 114 112 111 111 111 110 110 111 111 110 110 110 110 111 111 111 111 110 110 109 109 108 106 104 101 99 97 94 91 88 87 86 86 86 87 88 88 89 90 92 93
135 134 132 132 133 134 132 132 134 135 130 123 119 120 119 117 118 121 122 124 125 126 126 124 122 123 126 126 125 125 126 128 129 126 123 125 129 130 127 124 122 120 119 117 117 117 114 113 112 111 110 110 111 111 111 111 111 112 113 112 111 110 110 110 110 110 109 107 104 101 99 97 94 91 89 88 87 88 88 88 88 88 90 92 93 93
138 136 135 134 136 136 137 141 142 140 137 132 128 124 119 119 123 126 128 129 129 128 127 126 125 127 129 127 125 127 131 133 132 128 126 128 131 131 130 127 124 122 120 119 118 117 115 114 113 112 111 111 112 112 111 111 112 112 112 110 109 109 110 110 110 110 109 107 105 102 100 97 95 93 91 89 89 89 88 88 87 88 91 93 94 94
141 140 139 139 139 140 141 144 146 146 146 141 134 126 122 123 126 130 134 134 131 129 127 126 127 129 129 128 128 131 134 136 134 130 128 130 131 130 130 127 125 123 121 119 119 117 115 114 114 113 112 112 112 112 111 111 111 110 109 109 108 109 109 110 110 110 109 107 105 103 101 99 97 95 93 91 90 89 89 87 87 89 92 94 95 96
144 144 144 143 144 145 146 147 149 150 148 142 134 128 126 127 130 135 138 136 130 126 125 126 129 130 131 131 132 134 136 137 135 131 129 130 129 129 128 126 124 122 120 119 118 116 115 114 113 112 112 112 112 111 111 111 110 110 109 109 109 109 110 110 110 110 109 107 106 104 103 101 100 98 95 93 91 90 89 89 90 92 95 96 98 98
147 147 148 148 149 151 151 150 152 151 148 142 135 130 128 129 133 139 142 136 128 125 126 129 131 133 133 134 134 136 138 139 136 132 130 128 127 127 126 124 122 119 117 116 115 115 114 113 113 112 111 111 112 111 111 111 111 111 110 110 110 110 110 110 110 109 108 108 107 106 105 104 102 100 97 94 92 91 91 91 93 96 97 99 99 97
147 148 150 151 152 152 153 153 154 154 150 145 139 134 131 130 134 142 143 133 126 127 130 133 135 135 135 135 136 139 140 139 137 133 129 126 125 125 123 121 117 113 112 112 112 112 113 113 113 112 111 110 110 110 110 110 110 111 111 110 110 110 110 110 110 109 109 108 108 107 106 106 104 101 98 96 94 94 94 94 96 97 98 99 98 94
147 148 149 150 151 152 153 154 156 155 152 147 141 136 134 136 139 140 134 127 127 131 134 135 137 137 136 137 139 140 139 137 135 131 128 126 124 122 120 117 113 110 109 109 110 111 112 113 113 112 110 109 109 108 108 108 109 110 110 110 110 110 110 111 110 110 110 109 108 108 107 107 106 104 102 100 98 97 96 96 96 97 98 98 97 94
148 147 149 150 150 151 152 154 156 154 149 143 139 138 141 143 138 130 126 127 131 133 135 137 138 138 138 139 139 138 136 134 132 129 127 125 122 118 116 114 112 110 109 108 109 110 111 112 113 112 110 109 108 107 106 106 108 109 110 111 111 111 111 112 112 112 111 110 110 109 109 109 108 107 106 104 102 100 98 97 97 98 98 98 96 93
146 147 148 148 148 148 150 152 153 150 144 139 138 140 142 139 132 128 130 133 133 133 135 138 138 137 137 137 136 135 133 130 128 126 124 123 121 118 114 111 109 109 108 108 108 108 108 109 110 110 110 110 109 107 105 104 106 108 110 111 112 113 113 113 113 113 113 112 111 110 110 110 110 109 108 107 105 103 101 99 98 98 98 97 94 92
145 145 145 145 145 146 149 150 149 146 143 140 140 140 138 135 134 134 134 134 133 133 134 134 132 132 131 130 130 129 126 124 123 122 121 121 120 117 114 111 109 108 107 108 107 105 103 103 104 107 108 110 110 109 107 105 105 106 108 110 112 114 114 114 114 114 114 113 112 111 112 111 110 110 109 108 106 104 102 101 100 99 98 96 93 91
140 140 141 143 144 145 146 145 143 142 140 139 137 134 130 128 128 128 127 127 127 127 126 125 124 123 121 121 121 121 120 119 118 118 118 117 116 115 114 113 111 109 109 109 107 103 100 98 99 101 104 106 108 109 109 108 106 105 106 109 111 113 115 116 116 117 116 114 113 113 112 111 110 109 108 107 105 104 103 102 101 100 99 96 93 91
133 134 135 135 136 138 139 138 137 134 130 128 127 123 117 116 117 117 118 118 118 117 117 117 116 114 114 115 115 116 116 116 115 115 115 113 113 114 115 115 113 111 110 110 109 105 101 98 97 97 99 101 104 105 107 106 106 105 105 107 109 111 113 115 116 116 116 114 114 113 112 111 110 109 107 106 105 104 103 102 102 101 99 97 95 93
126 127 128 128 127 128 128 128 128 125 119 116 116 112 108 108 110 111 111 112 112 112 112 111 109 109 111 112 113 113 114 114 114 114 113 112 113 114 115 115 113 111 110 111 110 109 106 102 99 97 98 99 99 100 101 101 102 103 104 105 107 109 110 112 113 114 113 113 114 113 111 110 109 108 106 105 105 103 102 102 101 101 100 99 97 95
120 120 122 123 123 122 122 121 121 118 113 108 106 106 107 108 108 108 110 112 112 111 110 107 106 107 109 111 112 113 113 114 113 113 113 113 113 113 113 113 112 112 111 111 111 109 107 104 101 100 99 99 98 98 98 98 99 100 102 104 105 106 107 109 110 110 111 112 112 111 109 108 107 106 105 104 103 102 101 100 100 100 100 100 98 96
119 119 119 120 119 118 116 115 115 115 112 107 105 108 110 111 110 111 112 113 113 112 109 107 106 107 108 110 112 113 114 114 113 113 114 114 113 112 112 112 112 112 112 111 110 108 105 103 101 100 100 100 100 99 99 99 99 101 102 103 104 104 105 107 107 108 109 110 109 108 107 107 106 104 103 102 101 100 99 99 100 100 101 100 99 98
118 119 119 119 117 113 110 111 112 113 110 107 107 110 113 112 112 113 113 114 114 113 110 108 106 106 107 109 111 113 114 114 112 113 114 113 112 111 111 111 111 111 111 111 109 107 104 102 100 100 100 101 101 100 100 99 100 101 102 103 103 104 105 106 107 107 108 109 109 108 106 105 103 102 100 99 98 97 98 99 100 102 102 102 100 100
116 117 118 117 114 108 107 110 113 114 111 107 107 109 111 111 112 112 113 113 113 112 110 109 106 104 104 106 109 111 112 111 110 110 110 109 109 109 109 109 108 108 108 108 107 105 103 102 101 100 101 101 101 100 99 99 99 100 101 102 102 103 105 106 106 107 108 108 108 106 105 103 101 99 97 96 96 96 97 99 101 103 104 104 103 102
Wind_Direction
291 289 284 280 279 279 278 277 277 276 274 273 270 268 268 268 269 271 271 272 272 275 279 281 285 286 279 277 279 282 287 288 287 287 287 287 288 288 289 292 294 297 299 301 300 300 300 300 300 299 298 297 297 296 296 295 295 295 294 295 296 296 296 297 299 299 299 298 299 299 298 299 299 300 300 299 299 298 298 298 298 298 298 297 297 297
295 293 285 282 281 280 279 278 278 277 276 274 272 271 270 268 267 269 272 272 273 275 278 281 285 285 279 278 276 277 283 285 286 287 286 286 287 288 290 292 294 296 297 299 299 300 301 301 301 299 297 296 295 295 294 294 294 294 295 295 295 295 296 297 298 298 297 297 297 297 297 297 298 298 299 300 300 299 298 298 298 298 298 298 298 298
297 295 289 286 284 282 282 282 280 279 277 276 275 274 272 269 268 269 271 272 274 277 278 280 284 284 281 281 277 275 279 282 285 287 286 286 287 290 292 292 294 295 296 297 298 299 300 301 300 297 295 293 293 293 293 293 294 294 294 295 295 295 295 296 296 296 295 295 296 297 297 297 297 298 299 300 299 298 298 298 299 298 298 298 298 298
295 294 291 288 286 285 286 285 283 280 278 278 278 276 272 269 269 269 271 274 276 277 277 278 282 283 282 284 281 278 278 281 283 283 282 285 290 292 293 292 293 293 294 296 296 298 299 300 299 296 293 292 292 292 292 293 293 293 294 294 294 294 294 295 295 294 294 294 296 297 297 297 297 297 298 298 298 298 298 298 299 299 299 299 299 298
291 290 289 288 288 288 289 289 286 282 281 282 281 278 273 271 272 270 270 273 276 279 278 278 280 282 284 286 283 280 279 281 282 280 281 286 291 293 293 293 293 293 293 295 296 298 299 299 298 296 293 292 291 291 291 291 292 292 293 293 293 293 293 293 293 293 294 294 296 297 297 297 297 297 297 298 298 299 299 300 300 300 300 300 300 300
288 287 286 287 288 289 289 289 287 285 284 285 284 279 276 275 274 272 272 271 274 279 282 283 282 281 285 287 281 279 281 282 281 280 282 287 291 293 292 292 293 293 294 296 297 298 298 298 297 295 294 292 290 290 290 290 290 291 292 292 292 292 292 292 293 294 295 296 297 297 297 297 297 297 298 299 300 300 301 302 302 302 301 301 300 300
285 285 286 286 287 288 288 287 286 286 287 285 284 282 281 279 277 277 276 274 274 276 282 288 284 279 288 288 279 277 279 278 278 280 282 285 289 290 289 289 290 292 294 295 296 297 297 297 296 294 293 292 290 290 289 289 290 291 292 293 293 293 293 293 293 294 296 297 297 297 297 297 297 298 298 299 300 301 302 303 303 303 302 302 301 301
282 284 285 284 285 286 285 285 286 287 286 285 284 285 285 284 282 281 280 279 278 275 281 287 282 280 286 283 278 277 275 274 276 279 281 283 285 284 284 285 286 288 291 292 293 295 295 295 295 294 293 293 292 290 290 290 291 292 293 294 294 293 294 294 293 294 294 295 297 297 298 298 298 298 298 299 300 301 302 302 303 303 303 302 301 301
281 282 283 284 284 283 283 284 285 285 285 285 284 284 285 284 283 283 281 281 279 277 282 283 281 283 284 278 278 277 274 276 280 282 282 284 282 280 279 281 282 284 287 288 291 292 293 293 293 292 292 292 293 292 291 292 292 292 293 293 293 293 293 293 294 294 294 294 296 297 298 298 298 299 300 300 301 301 301 302 302 302 302 301 301 301
279 280 281 282 282 282 282 283 283 283 284 284 283 283 283 282 282 282 281 281 279 280 283 280 281 285 284 279 277 273 273 278 281 282 283 282 280 278 277 277 278 281 283 286 288 290 290 290 290 291 290 291 291 291 291 292 292 292 292 292 292 292 292 293 294 294 294 295 296 297 298 299 300 300 300 300 301 301 301 301 301 301 300 300 300 300
278 280 280 280 280 280 281 281 281 283 283 283 282 282 281 281 281 281 281 282 281 282 282 280 282 285 285 280 273 272 275 278 279 280 281 280 278 278 278 278 279 280 282 284 286 287 288 287 287 288 288 288 289 289 289 290 291 291 291 291 292 292 291 292 293 294 295 296 297 299 299 300 300 300 301 301 301 301 300 300 300 300 300 299 299 299
278 280 279 278 279 280 279 280 281 282 282 282 282 282 281 280 280 279 281 281 280 281 281 280 282 285 288 285 276 277 280 280 281 282 282 280 278 278 278 279 280 281 282 283 285 285 285 285 285 286 287 287 287 288 288 290 290 289 289 290 291 291 291 292 294 295 296 297 298 299 300 300 301 301 302 302 301 301 300 300 300 299 299 299 299 298
278 278 278 278 278 279 279 280 281 281 282 283 283 283 282 282 281 280 280 279 280 283 281 280 282 285 289 288 284 287 289 288 288 285 283 282 280 279 279 279 281 282 283 284 284 285 285 285 286 286 286 287 287 287 288 289 289 288 289 290 291 291 292 293 295 296 297 298 299 299 299 300 301 302 302 301 301 300 300 300 300 299 299 299 298 297
279 277 278 279 278 278 279 280 280 281 282 283 283 283 284 285 283 281 279 280 282 283 282 282 285 288 290 288 289 293 295 295 290 284 284 283 282 281 280 280 282 283 283 284 285 286 286 286 286 286 287 286 286 287 288 288 288 288 290 291 291 292 293 295 295 296 297 298 298 298 299 300 301 301 301 301 301 300 300 300 300 300 299 298 298 297
280 278 279 279 278 279 279 279 280 280 280 281 282 282 284 285 283 281 280 282 282 280 281 284 287 290 290 289 292 294 294 291 285 283 284 283 283 283 282 282 283 283 284 285 286 287 287 288 287 287 286 286 286 288 288 288 288 289 290 291 292 293 294 295 295 296 297 297 297 297 298 299 300 300 300 301 301 301 300 300 300 300 299 298 297 297
280 280 279 278 279 279 279 279 280 280 280 280 281 282 284 284 283 283 283 283 282 279 278 281 284 287 288 289 293 293 288 284 283 285 284 282 282 283 283 285 285 285 286 287 287 288 289 288 288 287 286 286 287 288 289 289 289 290 291 292 293 293 293 294 295 295 296 296 296 297 298 298 299 299 299 300 301 301 301 300 300 299 299 298 297 297
281 280 278 277 278 278 278 279 280 281 281 281 282 283 284 283 284 286 286 284 282 279 277 276 278 280 283 287 291 290 286 285 286 286 283 282 283 283 284 285 285 286 287 287 289 289 289 288 288 288 287 287 287 288 289 290 290 290 291 292 293 293 294 294 295 295 295 295 296 296 297 297 298 298 298 299 299 301 301 300 299 298 298 298 297 297
282 281 279 278 278 277 277 277 278 280 281 281 281 281 282 283 285 287 286 284 282 280 278 275 275 276 280 285 285 283 284 286 286 283 280 281 283 283 283 284 284 286 287 288 288 289 289 290 289 288 288 288 289 289 289 289 289 290 291 292 293 293 294 294 294 294 294 295 295 296 296 296 297 297 298 298 299 300 300 299 299 298 298 298 298 298
283 281 280 280 279 278 276 276 277 278 279 278 279 280 282 284 284 284 284 284 283 283 281 278 277 277 281 284 283 283 285 285 282 278 278 280 281 282 283 282 283 285 286 286 287 289 290 290 289 289 289 289 289 289 289 289 289 290 291 292 293 293 293 293 293 293 294 294 295 295 296 296 296 297 297 297 298 299 299 299 298 298 298 298 298 298
283 283 283 281 279 277 277 278 278 276 275 277 279 281 283 284 283 282 282 283 284 284 284 283 280 280 284 286 287 288 288 284 280 278 280 280 281 281 281 280 281 284 285 286 287 289 290 289 289 290 290 289 288 288 289 288 289 290 291 292 292 292 292 292 293 293 293 294 295 295 296 296 296 297 297 297 298 298 298 298 298 298 298 299 299 299
282 283 283 281 278 277 279 279 277 276 276 278 280 282 283 283 282 281 281 283 284 284 285 285 282 280 284 286 287 287 284 281 280 282 283 283 284 284 282 281 282 283 285 287 289 290 289 289 289 289 288 287 287 288 288 288 289 290 290 291 291 292 292 293 293 293 293 294 295 295 296 296 296 297 297 298 298 298 298 298 298 298 298 298 299 300
281 282 281 280 279 279 279 279 279 279 280 280 281 283 283 281 280 280 281 282 282 282 284 285 283 282 284 285 284 280 278 277 280 282 284 285 286 285 284 283 284 284 284 286 288 288 288 288 288 288 287 287 287 287 288 288 288 289 289 290 290 291 292 293 293 293 293 293 294 295 296 296 297 297 298 298 298 298 297 297 297 297 297 298 299 300
279 279 278 279 279 280 280 280 281 283 283 282 281 281 279 278 278 280 281 280 279 279 282 284 284 283 285 285 281 277 278 279 281 283 284 284 285 285 284 284 285 286 286 285 285 285 286 286 287 287 288 288 288 288 288 288 288 289 289 289 290 290 291 292 293 293 294 294 295 296 297 297 297 298 298 298 297 296 296 296 296 297 297 298 298 300
277 277 277 278 278 279 280 282 283 284 283 281 279 278 277 277 278 279 278 279 278 278 282 284 282 282 284 283 279 279 281 283 284 285 285 284 284 285 286 287 288 288 287 285 284 284 285 286 287 288 287 287 288 288 289 289 290 290 289 289 290 290 291 292 293 294 295 295 296 297 298 299 299 298 298 297 296 295 295 296 297 297 297 297 298 300
276 276 277 277 279 280 281 282 284 283 281 278 278 278 278 277 278 277 277 277 277 279 284 283 281 283 286 283 281 282 285 288 289 289 287 285 286 288 290 291 292 290 288 286 285 286 287 288 289 289 288 287 288 290 291 291 291 290 290 290 291 291 292 293 294 295 296 297 298 299 300 300 300 299 297 296 296 296 296 296 297 297 297 298 299 301
276 276 276 278 280 282 283 282 282 281 280 279 279 280 279 277 276 276 276 277 278 282 282 281 282 286 287 284 285 288 292 293 292 291 289 289 291 292 292 293 293 291 289 288 288 290 291 291 290 290 288 288 289 291 292 291 291 291 292 292 292 292 292 294 295 296 297 298 300 301 301 301 300 299 298 297 296 296 296 296 297 297 298 298 300 302
275 276 278 279 281 283 283 281 281 281 280 280 280 280 280 278 277 277 277 278 281 282 279 280 284 285 283 284 287 293 296 295 292 291 293 295 296 294 295 295 293 290 289 289 290 291 291 290 289 287 287 287 289 291 292 292 292 293 293 293 293 293 293 295 296 298 299 300 301 302 302 301 301 300 299 298 297 297 297 297 297 297 298 300 302 304
274 276 278 280 281 283 282 280 279 279 280 280 280 280 280 279 278 279 279 280 282 281 279 282 284 282 282 285 291 295 295 294 293 295 296 298 297 297 297 296 294 293 292 292 292 291 290 288 288 287 287 288 290 292 292 292 293 293 293 294 294 294 294 296 298 300 301 302 302 302 302 301 301 301 300 299 298 298 297 297 297 298 299 302 304 306
275 276 278 280 280 280 279 278 278 279 279 279 280 280 280 280 281 282 281 280 281 281 281 283 284 282 283 289 293 294 294 294 296 297 297 298 298 299 298 297 296 298 297 295 293 291 290 289 289 289 289 289 290 291 292 292 293 294 294 295 295 295 296 298 300 302 302 303 302 302 302 301 301 301 300 300 299 298 297 298 298 299 301 304 307 307
276 277 278 279 279 279 279 280 281 279 278 278 279 280 282 284 287 287 283 280 282 284 283 284 284 284 286 292 294 293 293 295 296 296 297 298 299 299 299 298 299 299 297 294 292 290 290 290 290 290 290 290 290 291 292 293 294 295 295 296 296 297 299 301 302 303 303 303 302 302 302 301 301 301 300 300 299 298 298 298 299 302 304 307 308 308
277 277 278 278 279 280 281 283 282 280 279 278 279 280 284 288 288 287 284 283 286 287 285 285 285 286 290 294 295 294 295 296 296 297 298 299 299 299 299 299 299 297 295 294 292 290 291 291 291 291 291 291 291 292 294 294 295 296 296 297 298 299 301 302 302 302 303 303 303 302 301 301 301 301 300 299 298 298 299 300 302 304 307 308 308 308
279 278 279 279 279 280 282 283 282 280 279 278 280 283 287 288 286 286 287 288 288 287 286 285 285 288 292 295 295 296 297 297 297 298 299 299 300 299 298 298 296 294 294 294 293 293 293 292 292 293 294 294 294 295 295 295 296 297 297 298 299 300 301 302 302 302 303 303 302 302 301 301 301 300 299 299 298 299 301 302 304 306 308 308 308 308
279 279 279 279 279 280 281 281 281 279 278 279 283 286 286 284 284 287 289 289 289 289 287 285 286 290 294 295 296 296 297 297 297 297 298 299 299 297 296 295 294 294 294 295 295 295 294 293 293 295 295 295 295 296 296 296 297 297 298 299 300 300 301 301 301 302 302 302 302 301 301 301 300 300 299 299 300 301 303 304 306 307 308 309 308 308
279 279 279 279 279 279 279 279 278 278 279 283 286 284 281 282 286 289 289 288 288 289 289 289 291 293 294 294 295 296 296 296 296 296 298 298 297 295 294 294 294 294 294 294 294 294 294 293 293 295 295 295 295 296 296 296 296 297 298 299 299 299 300 300 301 301 301 301 301 301 301 301 301 300 300 301 302 303 304 306 307 308 309 309 309 309
278 279 279 279 278 278 278 278 278 279 282 283 282 279 280 284 287 288 288 287 287 288 289 290 293 293 292 292 294 295 295 294 293 295 297 297 295 293 293 294 294 293 292 292 292 292 292 292 293 294 294 294 294 294 294 294 294 295 296 297 298 298 298 299 299 300 300 300 300 301 301 301 301 301 302 302 304 305 306 307 308 309 310 310 310 310
276 277 277 276 276 277 278 279 280 282 282 281 279 280 283 285 286 287 286 286 286 287 288 291 291 290 290 292 294 294 292 292 292 294 295 294 292 292 293 293 293 292 290 290 290 291 291 291 291 292 292 291 291 291 291 292 292 294 295 295 296 296 297 297 298 299 299 300 301 301 302 302 302 302 303 303 304 306 307 308 309 310 310 310 310 310
275 275 274 274 275 275 276 277 279 280 281 281 283 285 285 284 285 285 285 285 285 286 289 290 288 288 290 292 292 291 290 290 291 293 293 291 290 291 291 291 290 289 289 289 289 289 289 289 289 290 289 290 290 290 290 291 291 293 293 294 295 295 296 297 298 298 299 300 301 301 301 302 302 303 303 304 305 307 308 309 310 310 311 311 311 311
273 273 273 273 274 275 275 275 276 278 280 282 283 284 284 284 284 285 284 283 284 287 288 287 286 288 290 290 289 288 288 289 290 290 290 289 289 289 289 288 287 287 287 287 288 288 287 287 287 287 288 289 289 290 290 291 291 292 293 294 294 295 295 296 297 298 299 300 300 301 301 302 302 302 303 304 306 308 309 310 311 311 312 312 311 311
270 271 272 272 273 274 275 275 276 278 279 280 281 281 282 283 283 284 283 283 286 288 287 285 286 287 288 287 287 288 288 288 289 289 288 287 287 286 285 285 285 285 285 286 286 286 286 286 286 286 287 287 288 289 289 290 291 292 293 293 294 294 295 296 297 298 299 299 300 300 301 302 302 302 303 305 307 309 310 311 312 312 312 311 310 310
268 269 269 270 271 272 273 274 275 277 278 279 279 280 281 282 282 281 281 283 287 287 285 284 285 286 286 286 287 287 287 288 288 287 286 285 284 284 283 283 284 284 284 284 284 285 285 285 285 286 286 287 287 288 289 290 291 291 292 293 293 294 295 296 297 298 298 299 299 300 300 301 302 303 305 306 308 309 311 311 311 311 311 310 309 310
266 266 267 268 269 270 272 273 274 275 276 278 279 281 281 279 278 277 280 284 285 283 283 283 284 284 285 285 285 285 286 286 285 285 285 284 283 284 284 284 284 284 283 283 283 284 285 285 286 286 287 287 287 288 288 289 290 290 291 292 293 294 295 296 297 297 298 298 299 300 300 301 303 304 306 307 308 309 310 310 310 310 310 309 310 311
266 266 267 267 268 269 270 271 272 274 276 278 279 279 278 277 277 280 283 284 282 281 282 282 282 283 284 284 284 284 284 283 283 283 283 283 283 283 283 283 283 282 282 282 282 282 282 283 284 286 287 287 287 288 288 289 289 290 292 293 294 295 295 296 296 297 297 298 299 300 301 302 303 304 306 307 308 308 309 309 310 310 309 309 310 311
267 267 267 267 268 269 270 271 272 273 276 277 276 276 276 278 280 282 282 281 281 281 281 281 282 282 282 282 281 281 281 281 281 281 282 282 282 281 281 280 280 279 279 279 279 279 280 281 282 284 286 287 287 288 288 289 289 290 291 292 293 294 295 295 295 296 296 297 298 299 301 302 303 304 305 306 307 308 308 309 309 308 308 308 309 310
267 267 268 268 269 269 269 270 272 273 274 275 274 275 277 278 279 280 280 280 280 280 280 280 280 279 278 278 278 278 278 278 279 279 280 280 280 281 280 280 279 278 278 278 278 278 280 280 281 282 284 285 286 288 289 289 289 290 290 291 292 292 293 294 295 295 296 297 299 300 300 301 302 303 304 305 306 307 307 308 308 307 307 308 309 310
266 267 268 268 269 269 269 270 271 272 273 273 274 275 276 277 278 278 279 279 279 278 278 277 276 275 275 275 275 275 276 276 277 277 277 278 279 280 280 280 279 279 279 279 280 281 281 281 281 281 282 284 285 286 288 289 289 289 289 289 289 290 291 292 293 295 296 297 298 299 299 300 301 302 303 304 305 305 306 307 307 307 307 308 309 310
266 267 267 268 268 269 270 271 272 272 273 274 275 276 277 278 278 278 277 276 275 275 274 273 273 274 274 274 274 274 274 275 275 275 276 277 278 279 279 279 280 280 281 282 283 283 283 283 282 282 283 283 284 284 286 287 287 287 287 287 287 288 289 290 292 293 295 296 297 297 298 299 300 301 302 303 304 305 305 306 306 306 307 308 309 310
266 267 268 268 269 270 271 272 272 273 275 275 276 278 279 278 276 275 274 273 272 271 271 271 272 273 273 273 273 273 273 274 274 275 276 277 277 277 278 279 280 281 281 281 282 283 284 284 284 284 284 283 283 283 284 284 285 285 285 286 286 287 289 290 291 292 294 294 295 295 297 298 299 300 302 302 303 304 304 305 305 306 307 308 308 309
267 267 267 268 269 270 271 273 274 275 276 277 277 277 276 274 273 271 270 270 270 270 270 271 271 272 272 273 273 273 274 274 274 275 276 276 276 277 278 279 280 280 280 280 281 283 284 285 286 285 285 284 284 283 283 283 284 284 285 286 287 288 289 290 290 291 292 292 293 294 295 297 298 300 301 301 302 303 303 304 305 305 306 307 308 309
266 267 267 267 268 269 270 272 273 274 275 275 275 273 272 271 270 269 268 269 269 269 270 270 270 271 271 272 272 273 273 274 275 275 275 276 277 278 278 279 279 279 280 280 281 282 284 285 285 285 284 283 283 282 283 284 284 285 286 287 288 289 289 289 290 290 290 291 292 293 295 296 298 299 300 301 301 302 303 303 304 305 305 306 308 309
265 267 267 268 268 269 271 272 271 271 270 270 269 268 268 267 267 267 267 267 268 269 269 269 269 269 269 270 271 271 272 273 273 274 275 276 277 277 277 277 278 279 280 280 281 282 282 282 282 282 282 281 281 282 284 285 285 286 287 288 288 289 289 289 289 289 290 290 291 293 294 295 297 298 299 300 300 301 302 303 304 304 305 306 307 309
266 267 268 269 270 271 271 271 271 270 268 267 266 265 265 265 265 265 266 266 266 267 268 268 268 267 267 268 268 269 270 271 272 273 274 275 275 275 276 276 277 278 279 280 281 281 281 281 280 280 280 280 282 283 284 285 285 286 286 287 287 287 288 288 289 289 290 290 291 292 294 295 296 297 298 299 300 301 301 302 303 303 304 305 307 308
Height
10758 10757 10754 10751 10751 10751 10751 10751 10750 10750 10750 10750 10749 10750 10751 10752 10751 10747 10750 10754 10754 10759 10759 10755 10760 10761 10754 10749 10746 10740 10738 10739 10738 10736 10733 10732 10732 10731 10731 10732 10732 10733 10733 10732 10731 10729 10727 10725 10722 10719 10716 10714 10711 10709 10707 10705 10702 10701 10698 10696 10694 10691 10689 10687 10685 10682 10680 10678 10675 10673 10670 10668 10665 10662 10659 10656 10653 10649 10645 10641 10637 10633 10629 10626 10623 10619
10754 10753 10749 10746 10746 10746 10746 10746 10746 10746 10745 10745 10744 10745 10746 10746 10746 10744 10743 10747 10748 10753 10755 10750 10754 10756 10748 10746 10743 10738 10735 10733 10732 10731 10727 10725 10725 10724 10725 10725 10725 10726 10726 10725 10725 10723 10722 10719 10716 10713 10710 10708 10706 10704 10702 10699 10697 10695 10693 10691 10688 10685 10683 10681 10678 10676 10673 10671 10668 10666 10663 10660 10657 10654 10651 10648 10644 10640 10635 10631 10627 10622 10618 10615 10611 10607
10750 10748 10744 10742 10741 10741 10742 10742 10741 10742 10741 10740 10740 10741 10742 10739 10741 10742 10738 10739 10742 10747 10749 10747 10750 10750 10743 10742 10739 10734 10733 10729 10728 10727 10721 10718 10718 10717 10718 10718 10718 10719 10719 10718 10718 10717 10716 10714 10711 10708 10705 10702 10700 10698 10696 10694 10691 10689 10687 10685 10682 10679 10677 10674 10671 10669 10666 10663 10661 10658 10655 10652 10649 10646 10642 10639 10634 10630 10626 10621 10617 10612 10608 10604 10600 10595
10746 10743 10739 10737 10737 10737 10737 10737 10737 10737 10737 10736 10736 10736 10736 10733 10735 10739 10734 10734 10737 10740 10743 10742 10745 10745 10739 10738 10735 10729 10728 10726 10725 10722 10715 10713 10713 10710 10709 10710 10711 10711 10711 10711 10710 10710 10709 10707 10705 10701 10699 10696 10694 10692 10690 10688 10685 10682 10680 10678 10676 10672 10670 10667 10664 10661 10658 10655 10653 10649 10646 10643 10640 10637 10633 10629 10625 10621 10617 10612 10607 10602 10597 10593 10588 10582
10740 10737 10735 10732 10732 10732 10732 10732 10731 10732 10734 10733 10732 10730 10730 10730 10730 10733 10732 10731 10732 10734 10735 10736 10741 10742 10736 10735 10733 10724 10722 10721 10719 10715 10711 10711 10709 10705 10700 10699 10701 10702 10702 10702 10702 10702 10701 10699 10697 10694 10692 10690 10688 10686 10683 10681 10678 10676 10674 10672 10669 10666 10663 10660 10656 10653 10650 10647 10644 10641 10637 10634 10631 10627 10624 10620 10616 10612 10607 10602 10597 10592 10586 10581 10575 10570
10734 10730 10730 10728 10727 10727 10728 10727 10724 10726 10731 10730 10727 10723 10724 10727 10725 10727 10728 10728 10729 10729 10728 10728 10733 10738 10734 10732 10731 10722 10718 10717 10711 10708 10708 10709 10706 10700 10694 10691 10691 10691 10691 10693 10693 10693 10693 10691 10689 10687 10685 10684 10682 10680 10677 10674 10672 10669 10668 10665 10662 10659 10656 10652 10648 10645 10642 10638 10635 10631 10628 10624 10621 10618 10614 10610 10606 10601 10596 10591 10586 10581 10576 10569 10563 10557
10727 10723 10725 10723 10722 10722 10722 10721 10717 10720 10727 10727 10721 10717 10719 10721 10720 10722 10722 10723 10726 10725 10726 10722 10722 10733 10735 10729 10726 10720 10716 10712 10705 10702 10704 10705 10704 10698 10689 10685 10684 10683 10682 10683 10684 10685 10685 10683 10681 10680 10678 10676 10674 10672 10669 10666 10664 10662 10660 10658 10654 10651 10648 10644 10640 10637 10634 10630 10626 10622 10619 10615 10611 10608 10604 10599 10595 10590 10585 10579 10574 10569 10564 10558 10551 10545
10721 10718 10718 10717 10718 10717 10716 10715 10713 10713 10719 10722 10718 10713 10714 10714 10715 10717 10715 10717 10719 10720 10726 10719 10710 10726 10737 10728 10722 10717 10711 10707 10701 10699 10698 10699 10700 10694 10685 10680 10678 10677 10676 10677 10677 10678 10677 10675 10674 10672 10670 10668 10666 10664 10660 10657 10656 10654 10651 10649 10646 10643 10640 10637 10633 10630 10626 10622 10618 10614 10610 10606 10602 10598 10594 10589 10584 10579 10574 10568 10562 10557 10552 10546 10539 10533
10715 10714 10712 10712 10713 10711 10709 10709 10708 10707 10711 10716 10714 10710 10710 10708 10709 10711 10710 10711 10712 10715 10724 10716 10703 10718 10732 10726 10719 10711 10703 10701 10698 10695 10692 10692 10692 10687 10682 10676 10672 10672 10671 10671 10672 10672 10671 10669 10666 10664 10661 10659 10658 10655 10651 10648 10647 10645 10643 10641 10638 10635 10632 10629 10625 10622 10618 10614 10610 10605 10601 10597 10593 10588 10584 10579 10574 10569 10564 10558 10552 10547 10541 10535 10528 10522
10709 10710 10708 10707 10706 10703 10703 10703 10702 10702 10704 10707 10707 10705 10704 10703 10703 10704 10704 10704 10705 10712 10718 10709 10701 10711 10723 10722 10713 10703 10699 10697 10694 10689 10685 10684 10682 10677 10675 10670 10667 10667 10665 10665 10666 10665 10664 10663 10660 10657 10654 10651 10650 10648 10644 10641 10639 10637 10635 10632 10630 10627 10623 10620 10617 10613 10609 10605 10601 10596 10592 10588 10583 10578 10573 10569 10564 10559 10554 10548 10542 10536 10530 10524 10517 10511
10703 10705 10704 10701 10698 10697 10697 10696 10697 10697 10698 10698 10699 10699 10697 10697 10697 10697 10699 10696 10698 10707 10710 10703 10699 10704 10714 10717 10706 10697 10696 10694 10689 10685 10680 10677 10673 10668 10665 10662 10660 10660 10660 10660 10660 10659 10658 10656 10654 10651 10647 10644 10642 10640 10637 10635 10633 10630 10627 10624 10622 10619 10615 10611 10608 10604 10600 10596 10592 10587 10583 10578 10573 10568 10563 10559 10554 10549 10543 10537 10532 10526 10520 10514 10507 10500
10697 10699 10697 10694 10692 10691 10690 10690 10691 10692 10691 10691 10691 10691 10688 10690 10690 10690 10693 10688 10689 10701 10702 10696 10695 10697 10704 10706 10696 10692 10693 10689 10685 10679 10672 10669 10666 10661 10656 10653 10652 10652 10653 10653 10652 10652 10651 10649 10648 10644 10639 10637 10635 10633 10630 10628 10625 10622 10620 10617 10614 10610 10606 10602 10598 10595 10591 10586 10582 10578 10573 10568 10563 10558 10552 10548 10543 10538 10533 10527 10521 10515 10509 10503 10497 10490
10691 10692 10689 10687 10686 10684 10682 10683 10684 10685 10685 10684 10683 10681 10678 10681 10681 10682 10685 10680 10683 10693 10692 10689 10690 10693 10698 10694 10687 10687 10686 10682 10680 10673 10664 10659 10656 10654 10650 10645 10644 10645 10644 10645 10644 10644 10643 10642 10640 10636 10633 10630 10627 10624 10624 10621 10618 10614 10610 10608 10605 10602 10597 10593 10588 10585 10581 10577 10573 10568 10563 10558 10552 10547 10542 10537 10532 10527 10522 10517 10510 10505 10499 10492 10486 10479
10682 10685 10683 10678 10677 10677 10676 10675 10676 10678 10677 10676 10676 10671 10670 10672 10668 10670 10675 10673 10677 10684 10682 10682 10685 10689 10691 10687 10682 10682 10678 10673 10671 10665 10657 10651 10646 10644 10642 10638 10637 10637 10636 10636 10636 10635 10635 10634 10631 10629 10626 10622 10618 10616 10615 10613 10609 10606 10601 10598 10595 10591 10587 10582 10578 10574 10571 10567 10562 10557 10552 10547 10541 10536 10531 10525 10521 10516 10511 10506 10499 10493 10487 10481 10475 10468
10668 10677 10680 10669 10666 10671 10669 10667 10667 10669 10670 10670 10668 10662 10664 10663 10653 10654 10664 10666 10668 10674 10676 10676 10678 10683 10684 10681 10679 10677 10673 10666 10660 10657 10651 10643 10637 10634 10632 10630 10629 10628 10627 10628 10628 10627 10626 10625 10623 10621 10618 10614 10609 10607 10605 10602 10600 10596 10592 10588 10585 10581 10576 10572 10568 10565 10561 10556 10551 10546 10541 10535 10530 10524 10519 10514 10509 10504 10499 10494 10488 10481 10475 10470 10463 10456
10656 10669 10675 10661 10659 10664 10661 10660 10659 10658 10661 10662 10660 10657 10656 10652 10642 10642 10653 10657 10655 10661 10672 10672 10670 10676 10676 10673 10675 10671 10666 10660 10652 10651 10645 10635 10629 10625 10624 10623 10619 10617 10619 10620 10619 10619 10618 10615 10613 10611 10609 10606 10601 10597 10595 10592 10590 10586 10582 10579 10576 10571 10567 10563 10560 10556 10551 10546 10541 10536 10530 10524 10519 10513 10508 10503 10497 10493 10487 10482 10476 10469 10463 10458 10451 10444
10648 10657 10664 10656 10654 10657 10653 10653 10653 10650 10651 10652 10652 10650 10645 10641 10638 10634 10638 10644 10641 10644 10662 10667 10663 10670 10670 10667 10669 10663 10656 10653 10647 10643 10636 10626 10622 10619 10618 10616 10611 10609 10610 10611 10611 10610 10608 10605 10602 10601 10598 10596 10593 10588 10585 10582 10579 10576 10572 10570 10566 10562 10558 10553 10550 10546 10540 10536 10530 10524 10519 10513 10508 10502 10497 10492 10486 10481 10476 10470 10464 10457 10451 10446 10439 10433
10637 10640 10653 10651 10647 10649 10647 10645 10647 10646 10642 10640 10642 10641 10636 10634 10633 10627 10624 10629 10628 10627 10645 10659 10657 10661 10665 10661 10660 10655 10649 10647 10639 10632 10626 10618 10613 10612 10611 10607 10603 10602 10601 10602 10603 10601 10600 10595 10591 10590 10588 10586 10582 10578 10576 10572 10569 10566 10562 10559 10555 10551 10548 10543 10539 10534 10529 10524 10519 10513 10508 10502 10496 10491 10485 10480 10475 10469 10464 10458 10452 10445 10439 10433 10427 10420
10626 10622 10639 10645 10639 10639 10638 10639 10643 10643 10634 10629 10631 10632 10630 10628 10625 10620 10614 10614 10615 10612 10625 10645 10650 10654 10658 10654 10650 10646 10643 10638 10627 10620 10617 10610 10605 10605 10605 10599 10596 10596 10593 10593 10595 10593 10591 10586 10581 10580 10579 10576 10572 10568 10565 10562 10558 10555 10550 10547 10544 10540 10537 10532 10527 10523 10517 10512 10507 10501 10496 10490 10485 10479 10474 10469 10463 10458 10452 10446 10440 10433 10427 10421 10415 10408
10613 10606 10622 10636 10630 10625 10630 10636 10636 10632 10625 10621 10623 10625 10625 10620 10614 10610 10606 10604 10604 10599 10605 10624 10638 10648 10651 10644 10640 10637 10633 10625 10612 10609 10608 10600 10598 10600 10596 10591 10591 10590 10586 10584 10586 10583 10579 10575 10571 10571 10569 10565 10561 10558 10555 10551 10548 10544 10539 10535 10532 10529 10525 10521 10516 10511 10505 10500 10495 10490 10485 10479 10473 10468 10462 10457 10451 10446 10440 10434 10428 10421 10415 10408 10402 10396
10600 10594 10603 10616 10617 10617 10626 10630 10624 10621 10620 10617 10616 10618 10617 10612 10602 10596 10595 10598 10595 10588 10592 10602 10616 10639 10644 10633 10631 10628 10620 10611 10601 10601 10599 10589 10589 10591 10585 10580 10582 10584 10581 10576 10574 10570 10566 10562 10561 10561 10558 10553 10551 10547 10543 10540 10536 10532 10527 10523 10521 10517 10512 10508 10503 10498 10493 10488 10483 10478 10473 10467 10461 10455 10450 10444 10439 10433 10427 10421 10416 10409 10403 10397 10390 10384
10589 10582 10583 10592 10601 10610 10618 10619 10615 10616 10616 10611 10608 10610 10609 10600 10589 10582 10584 10591 10586 10578 10584 10586 10592 10624 10636 10623 10620 10615 10604 10599 10594 10593 10590 10581 10580 10580 10574 10570 10572 10575 10574 10568 10563 10557 10552 10552 10551 10549 10545 10540 10538 10535 10531 10528 10524 10519 10515 10511 10508 10504 10499 10495 10490 10485 10481 10475 10471 10466 10461 10455 10448 10443 10437 10431 10426 10421 10415 10409 10403 10397 10391 10385 10378 10372
10578 10568 10566 10574 10585 10596 10605 10609 10610 10610 10608 10605 10602 10601 10595 10585 10580 10575 10570 10576 10575 10570 10581 10577 10571 10604 10626 10613 10606 10600 10590 10588 10585 10581 10578 10573 10571 10567 10562 10562 10564 10565 10563 10557 10551 10545 10542 10542 10540 10536 10533 10528 10525 10522 10518 10515 10511 10506 10502 10499 10496 10491 10486 10481 10477 10473 10468 10463 10458 10453 10448 10442 10436 10430 10424 10419 10413 10409 10403 10397 10391 10385 10379 10373 10367 10361
10564 10554 10553 10559 10568 10581 10593 10600 10604 10603 10598 10593 10590 10588 10582 10577 10575 10567 10559 10561 10559 10563 10579 10566 10550 10584 10612 10601 10591 10587 10580 10579 10575 10568 10566 10564 10560 10555 10550 10552 10554 10553 10549 10543 10537 10532 10531 10531 10529 10524 10520 10515 10512 10509 10505 10502 10497 10492 10489 10486 10483 10479 10474 10469 10464 10460 10455 10450 10445 10440 10434 10428 10423 10417 10412 10406 10401 10396 10390 10384 10378 10372 10367 10361 10355 10349
10551 10546 10542 10543 10551 10567 10582 10591 10594 10592 10584 10577 10576 10576 10573 10570 10565 10556 10552 10549 10545 10561 10573 10547 10532 10569 10593 10581 10576 10576 10571 10570 10563 10555 10554 10552 10548 10545 10542 10542 10542 10539 10533 10527 10522 10520 10521 10519 10516 10511 10506 10501 10498 10496 10493 10488 10483 10478 10475 10473 10470 10466 10461 10456 10451 10447 10443 10437 10431 10426 10420 10415 10409 10404 10399 10393 10388 10383 10377 10371 10365 10360 10354 10348 10343 10337
10538 10536 10533 10532 10537 10551 10569 10580 10581 10575 10566 10562 10565 10565 10562 10558 10553 10546 10543 10538 10540 10556 10555 10531 10529 10554 10564 10559 10564 10565 10559 10555 10549 10541 10541 10541 10538 10536 10534 10532 10530 10525 10516 10511 10509 10510 10510 10506 10502 10497 10491 10486 10485 10484 10480 10475 10469 10466 10462 10459 10456 10452 10447 10442 10438 10434 10429 10424 10418 10412 10407 10402 10396 10391 10385 10380 10375 10369 10363 10358 10352 10346 10341 10336 10331 10325
10523 10522 10524 10524 10528 10537 10551 10562 10564 10556 10548 10547 10551 10551 10548 10545 10542 10536 10531 10534 10540 10536 10525 10527 10534 10532 10530 10543 10557 10555 10542 10533 10532 10530 10529 10529 10526 10523 10522 10521 10518 10511 10503 10499 10499 10499 10496 10491 10487 10482 10476 10472 10472 10470 10466 10460 10456 10453 10449 10445 10441 10438 10433 10428 10424 10420 10415 10409 10404 10399 10394 10388 10383 10378 10372 10367 10362 10356 10350 10345 10339 10334 10329 10324 10319 10312
10512 10510 10513 10514 10517 10524 10531 10541 10547 10542 10533 10530 10532 10535 10535 10532 10530 10526 10525 10535 10532 10509 10503 10525 10527 10506 10507 10531 10546 10541 10525 10515 10517 10519 10518 10515 10510 10508 10508 10506 10503 10498 10493 10490 10488 10485 10480 10474 10471 10468 10463 10459 10458 10456 10451 10446 10443 10439 10435 10431 10428 10423 10419 10413 10409 10405 10400 10394 10389 10385 10380 10375 10370 10365 10360 10354 10349 10343 10338 10332 10327 10321 10316 10312 10306 10298
10500 10496 10502 10504 10503 10507 10512 10519 10530 10531 10520 10513 10513 10515 10517 10519 10520 10520 10523 10528 10516 10493 10495 10511 10503 10488 10498 10518 10526 10521 10510 10505 10505 10505 10505 10500 10494 10493 10492 10489 10489 10487 10482 10478 10474 10468 10463 10458 10457 10454 10450 10447 10445 10441 10436 10432 10429 10425 10421 10417 10413 10408 10403 10398 10394 10390 10385 10380 10375 10371 10366 10361 10357 10352 10347 10342 10336 10330 10325 10319 10314 10309 10304 10299 10292 10285
10488 10484 10492 10492 10485 10487 10494 10501 10511 10512 10502 10496 10495 10493 10497 10508 10512 10509 10510 10513 10502 10487 10489 10489 10477 10476 10492 10505 10505 10500 10497 10494 10489 10487 10490 10486 10481 10477 10472 10471 10476 10473 10466 10463 10460 10454 10449 10446 10444 10441 10437 10435 10431 10427 10423 10419 10416 10412 10407 10403 10398 10393 10387 10383 10379 10375 10370 10365 10361 10357 10352 10348 10344 10339 10334 10329 10323 10318 10312 10307 10302 10296 10291 10285 10279 10272
10474 10472 10479 10478 10467 10467 10480 10489 10490 10485 10479 10475 10474 10477 10490 10502 10498 10489 10493 10499 10490 10479 10478 10471 10458 10465 10485 10491 10483 10479 10480 10477 10472 10471 10472 10471 10470 10463 10454 10455 10458 10452 10447 10447 10445 10441 10437 10435 10432 10428 10424 10420 10416 10413 10409 10405 10401 10397 10393 10388 10383 10378 10373 10368 10365 10360 10355 10351 10347 10342 10338 10334 10330 10326 10321 10316 10310 10305 10300 10294 10289 10283 10277 10272 10265 10258
10459 10457 10462 10462 10449 10450 10470 10474 10466 10463 10455 10446 10453 10474 10488 10486 10474 10470 10480 10484 10474 10464 10462 10457 10449 10457 10473 10472 10462 10461 10462 10457 10455 10455 10455 10458 10458 10447 10438 10439 10439 10433 10428 10428 10429 10429 10425 10421 10417 10413 10409 10405 10401 10398 10394 10390 10387 10383 10378 10373 10369 10364 10359 10354 10351 10346 10341 10337 10332 10328 10324 10320 10316 10312 10307 10302 10297 10292 10287 10281 10276 10271 10265 10259 10252 10244
10444 10442 10446 10443 10430 10436 10455 10454 10446 10442 10427 10424 10452 10474 10469 10459 10455 10461 10467 10465 10453 10445 10442 10441 10444 10452 10458 10452 10445 10445 10444 10441 10438 10437 10442 10446 10441 10430 10424 10423 10420 10417 10413 10410 10411 10413 10409 10404 10402 10398 10394 10390 10385 10382 10379 10375 10371 10367 10363 10360 10355 10351 10346 10341 10337 10332 10327 10323 10318 10314 10311 10306 10302 10298 10294 10289 10284 10279 10274 10269 10264 10258 10252 10245 10238 10231
10429 10427 10428 10425 10415 10419 10433 10434 10425 10411 10404 10425 10456 10456 10440 10441 10449 10450 10449 10444 10437 10431 10426 10426 10435 10444 10442 10436 10435 10431 10427 10424 10420 10422 10431 10431 10418 10409 10409 10408 10406 10403 10400 10397 10396 10395 10391 10389 10387 10384 10380 10376 10371 10367 10363 10360 10356 10352 10350 10347 10342 10338 10333 10328 10323 10319 10314 10309 10305 10301 10297 10293 10288 10284 10280 10275 10271 10266 10261 10256 10252 10246 10239 10232 10225 10217
10415 10414 10412 10408 10399 10396 10406 10410 10397 10387 10403 10430 10437 10428 10428 10438 10440 10432 10427 10426 10424 10419 10415 10418 10426 10427 10421 10422 10427 10420 10410 10404 10401 10410 10421 10412 10394 10387 10388 10394 10396 10389 10384 10384 10382 10379 10376 10374 10372 10369 10366 10361 10357 10353 10350 10346 10343 10339 10336 10333 10329 10324 10320 10315 10310 10306 10300 10295 10291 10287 10283 10279 10275 10270 10266 10262 10258 10254 10249 10244 10239 10233 10226 10218 10211 10205
10403 10403 10398 10392 10383 10378 10381 10380 10371 10374 10392 10403 10407 10421 10434 10430 10423 10414 10403 10404 10409 10406 10407 10415 10415 10405 10401 10411 10417 10406 10391 10383 10385 10402 10409 10391 10375 10371 10372 10377 10379 10372 10368 10368 10365 10364 10363 10359 10357 10355 10351 10347 10344 10339 10336 10332 10329 10326 10323 10319 10315 10310 10306 10301 10296 10291 10286 10281 10277 10273 10269 10265 10261 10257 10253 10250 10246 10241 10237 10232 10226 10220 10212 10205 10198 10192
10389 10386 10382 10375 10370 10369 10366 10360 10357 10358 10361 10370 10393 10420 10426 10414 10408 10400 10382 10378 10390 10400 10406 10405 10392 10385 10392 10400 10399 10387 10374 10366 10372 10390 10393 10373 10361 10362 10361 10360 10358 10354 10353 10351 10348 10349 10348 10344 10342 10339 10335 10333 10329 10324 10321 10317 10314 10312 10308 10304 10300 10296 10291 10286 10281 10277 10272 10267 10263 10259 10255 10252 10248 10244 10241 10237 10234 10229 10224 10219 10214 10207 10199 10192 10185 10179
10371 10368 10367 10358 10351 10353 10349 10342 10342 10340 10342 10361 10386 10404 10408 10400 10392 10383 10362 10353 10373 10399 10404 10386 10370 10374 10382 10381 10376 10368 10358 10352 10359 10374 10373 10358 10351 10351 10347 10343 10341 10338 10337 10335 10333 10333 10331 10327 10326 10323 10319 10317 10313 10309 10306 10302 10299 10297 10292 10288 10285 10280 10276 10272 10267 10263 10258 10254 10250 10245 10241 10238 10234 10231 10228 10225 10221 10216 10211 10206 10200 10194 10187 10180 10173 10167
10358 10353 10351 10341 10332 10334 10331 10324 10324 10324 10332 10353 10374 10388 10395 10389 10378 10365 10339 10333 10368 10397 10387 10364 10358 10362 10362 10358 10357 10351 10340 10335 10342 10351 10351 10344 10339 10334 10329 10327 10327 10325 10323 10321 10318 10315 10312 10309 10307 10305 10304 10302 10298 10295 10291 10287 10284 10281 10277 10273 10269 10264 10261 10257 10253 10249 10245 10240 10236 10231 10228 10225 10221 10218 10215 10212 10208 10203 10197 10193 10187 10181 10175 10168 10162 10156
10347 10340 10335 10325 10317 10319 10317 10308 10305 10309 10319 10339 10358 10373 10380 10377 10368 10345 10317 10328 10372 10385 10361 10346 10346 10345 10342 10340 10337 10330 10324 10320 10319 10323 10327 10325 10319 10315 10312 10311 10312 10312 10310 10306 10302 10298 10295 10291 10287 10286 10286 10285 10282 10280 10276 10273 10269 10265 10261 10258 10253 10249 10246 10242 10238 10235 10230 10226 10222 10218 10215 10211 10207 10204 10201 10197 10194 10190 10184 10180 10175 10169 10163 10156 10150 10145
10331 10325 10319 10311 10307 10309 10305 10294 10289 10294 10307 10326 10345 10358 10361 10353 10339 10322 10318 10343 10367 10360 10342 10335 10330 10327 10329 10324 10315 10310 10309 10305 10300 10299 10301 10300 10299 10299 10298 10295 10295 10295 10292 10288 10285 10283 10279 10275 10271 10270 10269 10268 10267 10265 10262 10259 10255 10251 10247 10243 10239 10235 10232 10227 10224 10221 10216 10212 10208 10205 10201 10197 10193 10190 10187 10183 10180 10177 10172 10168 10163 10157 10151 10144 10138 10133
10313 10311 10303 10297 10295 10296 10293 10284 10276 10278 10297 10325 10340 10337 10326 10313 10308 10316 10333 10345 10343 10334 10328 10321 10312 10312 10313 10305 10297 10294 10290 10287 10284 10281 10279 10279 10280 10283 10283 10282 10280 10277 10274 10272 10270 10267 10265 10262 10258 10256 10256 10254 10252 10250 10248 10245 10240 10236 10232 10229 10225 10221 10217 10213 10210 10206 10202 10198 10195 10191 10188 10184 10179 10176 10172 10169 10166 10164 10160 10156 10151 10145 10139 10132 10127 10122
10290 10289 10281 10279 10284 10285 10277 10268 10263 10268 10292 10319 10322 10305 10292 10293 10304 10318 10323 10320 10317 10316 10311 10302 10298 10298 10294 10286 10281 10276 10271 10270 10269 10265 10263 10261 10258 10259 10263 10265 10265 10262 10259 10257 10254 10252 10252 10250 10247 10245 10243 10241 10238 10236 10234 10231 10227 10224 10220 10216 10212 10207 10203 10200 10196 10192 10189 10185 10182 10179 10174 10170 10166 10162 10158 10156 10153 10150 10147 10142 10138 10133 10127 10121 10116 10111
10263 10266 10263 10264 10271 10269 10255 10249 10256 10269 10284 10293 10289 10284 10286 10292 10298 10303 10298 10294 10296 10295 10290 10288 10286 10281 10274 10269 10263 10257 10255 10257 10255 10252 10249 10243 10238 10239 10241 10243 10245 10245 10243 10241 10239 10240 10241 10239 10237 10234 10230 10227 10225 10222 10220 10217 10215 10212 10209 10204 10199 10194 10190 10187 10182 10178 10174 10171 10168 10165 10160 10156 10153 10149 10145 10143 10139 10136 10133 10129 10124 10120 10114 10109 10105 10100
10243 10252 10251 10246 10245 10241 10234 10237 10251 10262 10269 10269 10266 10272 10281 10282 10281 10283 10281 10276 10275 10273 10271 10268 10262 10259 10257 10252 10246 10243 10242 10241 10240 10237 10233 10229 10227 10225 10222 10221 10223 10224 10224 10223 10224 10228 10229 10228 10226 10222 10217 10214 10211 10208 10205 10203 10201 10199 10196 10191 10187 10182 10178 10173 10169 10164 10160 10157 10154 10150 10146 10143 10140 10136 10133 10130 10126 10123 10119 10115 10110 10105 10100 10096 10092 10087
10228 10234 10232 10229 10227 10223 10220 10225 10235 10244 10254 10257 10254 10258 10267 10268 10264 10262 10259 10256 10255 10254 10250 10244 10240 10242 10241 10234 10230 10229 10226 10224 10223 10220 10219 10219 10217 10211 10206 10203 10204 10206 10206 10205 10206 10209 10211 10211 10211 10210 10206 10202 10199 10195 10192 10189 10186 10184 10181 10177 10173 10169 10165 10161 10156 10151 10148 10145 10141 10137 10133 10131 10127 10124 10120 10116 10113 10110 10106 10102 10097 10091 10086 10082 10078 10074
10213 10216 10212 10211 10215 10213 10209 10213 10220 10228 10240 10245 10242 10244 10250 10249 10244 10240 10235 10232 10233 10231 10229 10229 10229 10228 10223 10216 10214 10212 10210 10210 10208 10205 10207 10207 10202 10197 10194 10190 10189 10191 10191 10188 10188 10189 10190 10192 10194 10194 10192 10188 10185 10182 10178 10175 10172 10169 10165 10162 10158 10154 10151 10148 10144 10140 10136 10133 10128 10124 10122 10119 10115 10112 10108 10104 10100 10097 10093 10089 10084 10078 10073 10068 10065 10062
10199 10201 10197 10197 10200 10200 10199 10205 10211 10215 10224 10232 10232 10230 10227 10221 10219 10218 10212 10208 10210 10210 10211 10216 10216 10212 10207 10202 10198 10195 10194 10195 10194 10192 10192 10190 10187 10186 10185 10180 10177 10176 10174 10173 10174 10174 10174 10177 10177 10177 10175 10171 10168 10165 10162 10160 10158 10154 10150 10147 10143 10141 10138 10135 10131 10128 10124 10119 10115 10112 10110 10107 10103 10100 10097 10092 10088 10084 10080 10076 10071 10066 10060 10055 10052 10049
10182 10182 10182 10184 10187 10189 10194 10201 10205 10204 10208 10216 10216 10207 10200 10196 10196 10195 10191 10189 10190 10191 10194 10200 10200 10196 10193 10188 10184 10181 10178 10178 10181 10179 10174 10173 10175 10176 10173 10167 10163 10161 10159 10159 10159 10160 10162 10164 10163 10161 10158 10154 10150 10148 10147 10145 10143 10139 10135 10132 10129 10127 10125 10121 10117 10114 10110 10106 10102 10100 10098 10096 10092 10089 10085 10081 10077 10072 10067 10062 10058 10053 10048 10044 10040 10037
10167 10165 10167 10168 10170 10180 10190 10193 10190 10186 10190 10197 10195 10184 10177 10176 10176 10174 10174 10174 10173 10172 10176 10180 10181 10181 10179 10174 10170 10168 10163 10163 10168 10165 10159 10160 10163 10161 10158 10154 10149 10147 10146 10144 10144 10147 10150 10150 10148 10146 10142 10138 10135 10134 10134 10132 10128 10124 10121 10118 10115 10113 10109 10105 10102 10098 10095 10092 10089 10087 10086 10084 10081 10078 10074 10070 10066 10060 10054 10049 10044 10039 10034 10031 10028 10025
10151 10150 10153 10152 10157 10171 10179 10171 10162 10159 10164 10172 10173 10166 10160 10159 10157 10156 10157 10157 10157 10157 10158 10158 10159 10164 10166 10162 10157 10152 10149 10150 10153 10150 10146 10147 10148 10144 10142 10141 10137 10135 10133 10130 10130 10133 10134 10133 10132 10130 10126 10124 10123 10122 10121 10119 10114 10111 10108 10105 10102 10099 10095 10090 10086 10083 10080 10077 10075 10074 10073 10071 10069 10066 10062 10058 10054 10049 10044 10038 10032 10026 10020 10016 10013 10011